Time,TemperatureF,DewpointF,PressureIn,WindDirection,WindDirectionDegrees,WindSpeedMPH,WindSpeedGustMPH,Humidity,HourlyPrecipIn,Conditions,Clouds,dailyrainin,SolarRadiationWatts/m^2,SoftwareType,DateUTC
2013-01-11 00:00:00,37.2,31.6,30.32,East,82,0.0,0.0,80,0.00,,,0.00,0,Wunderground v.1.15,2013-01-11 05:00:00,
2013-01-11 00:04:00,37.1,31.5,30.32,East,82,0.0,0.0,80,0.00,,,0.00,0,Wunderground v.1.15,2013-01-11 05:04:00,
2013-01-11 00:05:00,37.1,31.5,30.32,East,82,0.0,0.0,80,0.00,,,0.00,0,Wunderground v.1.15,2013-01-11 05:05:00,
2013-01-11 00:09:00,37.0,31.7,30.32,East,82,0.0,0.0,81,0.00,,,0.00,0,Wunderground v.1.15,2013-01-11 05:09:00,
2013-01-11 00:14:00,36.8,31.5,30.32,East,82,0.0,0.0,81,0.00,,,0.00,0,Wunderground v.1.15,2013-01-11 05:14:00,
2013-01-11 00:20:00,36.7,31.7,30.31,East,82,0.0,0.0,82,0.00,,,0.00,0,Wunderground v.1.15,2013-01-11 05:20:00,
2013-01-11 00:25:00,36.5,31.8,30.31,East,82,0.0,0.0,83,0.00,,,0.00,0,Wunderground v.1.15,2013-01-11 05:25:00,
2013-01-11 00:31:00,36.4,31.7,30.31,East,82,0.0,0.0,83,0.00,,,0.00,0,Wunderground v.1.15,2013-01-11 05:31:00,
2013-01-11 00:36:00,36.3,31.9,30.31,East,82,0.0,0.0,84,0.00,,,0.00,0,Wunderground v.1.15,2013-01-11 05:36:00,
2013-01-11 00:42:00,36.2,31.8,30.31,East,82,0.0,0.0,84,0.00,,,0.00,0,Wunderground v.1.15,2013-01-11 05:42:00,
2013-01-11 00:47:00,36.1,31.7,30.30,East,82,0.0,0.0,84,0.00,,,0.00,0,Wunderground v.1.15,2013-01-11 05:47:00,
2013-01-11 00:53:00,36.1,32.0,30.30,East,82,0.0,0.0,85,0.00,,,0.00,0,Wunderground v.1.15,2013-01-11 05:53:00,
2013-01-11 00:59:00,36.0,31.9,30.30,East,82,0.0,0.0,85,0.00,,,0.00,0,Wunderground v.1.15,2013-01-11 05:59:00,
2013-01-11 01:04:00,36.0,31.9,30.30,East,82,0.0,0.0,85,0.00,,,0.00,0,Wunderground v.1.15,2013-01-11 06:04:00,
2013-01-11 01:09:00,36.1,32.0,30.30,East,82,0.0,0.0,85,0.00,,,0.00,0,Wunderground v.1.15,2013-01-11 06:09:00,
2013-01-11 01:15:00,36.1,32.0,30.30,East,82,0.0,0.0,85,0.00,,,0.00,0,Wunderground v.1.15,2013-01-11 06:15:00,
2013-01-11 01:20:00,36.1,32.3,30.30,East,82,0.0,0.0,86,0.00,,,0.00,0,Wunderground v.1.15,2013-01-11 06:20:00,
2013-01-11 01:26:00,36.2,32.4,30.29,East,82,0.0,0.0,86,0.00,,,0.00,0,Wunderground v.1.15,2013-01-11 06:26:00,
2013-01-11 01:31:00,36.2,32.4,30.29,East,82,0.0,0.0,86,0.00,,,0.00,0,Wunderground v.1.15,2013-01-11 06:31:00,
2013-01-11 01:37:00,36.2,32.4,30.29,East,82,0.0,0.0,86,0.00,,,0.00,0,Wunderground v.1.15,2013-01-11 06:37:00,
2013-01-11 01:42:00,36.3,32.5,30.28,East,82,0.0,0.0,86,0.00,,,0.00,0,Wunderground v.1.15,2013-01-11 06:42:00,
2013-01-11 01:47:00,36.3,32.5,30.28,East,82,0.0,0.0,86,0.00,,,0.00,0,Wunderground v.1.15,2013-01-11 06:47:00,
2013-01-11 01:53:00,36.3,32.5,30.28,East,82,0.0,0.0,86,0.00,,,0.00,0,Wunderground v.1.15,2013-01-11 06:53:00,
2013-01-11 01:59:00,36.3,32.5,30.28,East,82,0.0,0.0,86,0.00,,,0.00,0,Wunderground v.1.15,2013-01-11 06:59:00,
2013-01-11 02:04:00,36.3,32.5,30.28,East,82,0.0,0.0,86,0.00,,,0.00,0,Wunderground v.1.15,2013-01-11 07:04:00,
2013-01-11 02:09:00,36.3,32.5,30.27,East,82,0.0,0.0,86,0.00,,,0.00,0,Wunderground v.1.15,2013-01-11 07:09:00,
2013-01-11 02:15:00,36.3,32.5,30.28,East,82,0.0,0.0,86,0.00,,,0.00,0,Wunderground v.1.15,2013-01-11 07:15:00,
2013-01-11 02:21:00,36.3,32.5,30.28,East,82,0.0,0.0,86,0.00,,,0.00,0,Wunderground v.1.15,2013-01-11 07:21:00,
2013-01-11 02:26:00,36.4,32.6,30.27,East,82,0.0,0.0,86,0.00,,,0.00,0,Wunderground v.1.15,2013-01-11 07:26:00,
2013-01-11 02:32:00,36.4,32.6,30.27,East,82,0.0,0.0,86,0.00,,,0.00,0,Wunderground v.1.15,2013-01-11 07:32:00,
2013-01-11 02:37:00,36.5,32.7,30.27,East,82,0.0,0.0,86,0.00,,,0.00,0,Wunderground v.1.15,2013-01-11 07:37:00,
2013-01-11 02:43:00,36.6,32.8,30.26,East,82,0.0,1.0,86,0.00,,,0.00,0,Wunderground v.1.15,2013-01-11 07:43:00,
2013-01-11 02:49:00,36.7,32.9,30.27,East,82,0.0,1.0,86,0.00,,,0.00,0,Wunderground v.1.15,2013-01-11 07:49:00,
2013-01-11 02:54:00,36.8,33.0,30.26,East,82,0.0,0.0,86,0.00,,,0.00,0,Wunderground v.1.15,2013-01-11 07:54:00,
2013-01-11 03:01:00,36.9,33.1,30.27,East,82,0.0,0.0,86,0.00,,,0.00,0,Wunderground v.1.15,2013-01-11 08:01:00,
2013-01-11 03:06:00,37.0,33.2,30.27,East,82,0.0,0.0,86,0.00,,,0.00,0,Wunderground v.1.15,2013-01-11 08:06:00,
2013-01-11 03:12:00,37.1,33.0,30.27,East,82,0.0,0.0,85,0.00,,,0.00,0,Wunderground v.1.15,2013-01-11 08:12:00,
2013-01-11 03:18:00,37.1,33.3,30.27,East,82,0.0,0.0,86,0.00,,,0.00,0,Wunderground v.1.15,2013-01-11 08:18:00,
2013-01-11 03:23:00,37.1,33.3,30.27,East,82,0.0,0.0,86,0.00,,,0.00,0,Wunderground v.1.15,2013-01-11 08:23:00,
2013-01-11 03:29:00,37.1,33.3,30.27,East,82,0.0,0.0,86,0.00,,,0.00,0,Wunderground v.1.15,2013-01-11 08:29:00,
2013-01-11 03:34:00,37.1,33.3,30.27,East,82,0.0,0.0,86,0.00,,,0.00,0,Wunderground v.1.15,2013-01-11 08:34:00,
2013-01-11 03:40:00,37.2,33.4,30.27,East,82,0.0,0.0,86,0.00,,,0.00,0,Wunderground v.1.15,2013-01-11 08:40:00,
2013-01-11 03:46:00,37.3,33.5,30.26,East,82,0.0,0.0,86,0.00,,,0.00,0,Wunderground v.1.15,2013-01-11 08:46:00,
2013-01-11 03:51:00,37.3,33.5,30.26,East,82,0.0,0.0,86,0.00,,,0.00,0,Wunderground v.1.15,2013-01-11 08:51:00,
2013-01-11 03:57:00,37.4,33.6,30.25,East,82,0.0,0.0,86,0.00,,,0.00,0,Wunderground v.1.15,2013-01-11 08:57:00,
2013-01-11 04:03:00,37.5,33.7,30.25,East,82,0.0,0.0,86,0.00,,,0.00,0,Wunderground v.1.15,2013-01-11 09:03:00,
2013-01-11 04:09:00,37.7,33.9,30.24,East,82,0.0,0.0,86,0.00,,,0.00,0,Wunderground v.1.15,2013-01-11 09:09:00,
2013-01-11 04:15:00,37.8,34.0,30.23,East,82,0.0,0.0,86,0.00,,,0.00,0,Wunderground v.1.15,2013-01-11 09:15:00,
2013-01-11 04:20:00,37.8,34.0,30.23,East,82,0.0,0.0,86,0.00,,,0.00,0,Wunderground v.1.15,2013-01-11 09:20:00,
2013-01-11 04:26:00,38.0,34.2,30.22,East,82,0.0,0.0,86,0.00,,,0.00,0,Wunderground v.1.15,2013-01-11 09:26:00,
2013-01-11 04:31:00,38.0,34.2,30.23,East,82,0.0,0.0,86,0.00,,,0.00,0,Wunderground v.1.15,2013-01-11 09:31:00,
2013-01-11 04:37:00,38.0,33.9,30.22,East,82,0.0,0.0,85,0.00,,,0.00,0,Wunderground v.1.15,2013-01-11 09:37:00,
2013-01-11 04:43:00,38.0,33.9,30.20,East,82,0.0,0.0,85,0.00,,,0.00,0,Wunderground v.1.15,2013-01-11 09:43:00,
2013-01-11 04:49:00,38.0,33.9,30.20,East,82,0.0,0.0,85,0.00,,,0.00,0,Wunderground v.1.15,2013-01-11 09:49:00,
2013-01-11 04:54:00,37.9,33.8,30.20,East,82,0.0,0.0,85,0.00,,,0.00,0,Wunderground v.1.15,2013-01-11 09:54:00,
2013-01-11 05:00:00,37.8,34.0,30.20,East,82,0.0,0.0,86,0.00,,,0.00,0,Wunderground v.1.15,2013-01-11 10:00:00,
2013-01-11 05:06:00,37.8,34.0,30.20,East,82,0.0,0.0,86,0.00,,,0.00,0,Wunderground v.1.15,2013-01-11 10:06:00,
2013-01-11 05:12:00,37.8,34.0,30.20,East,82,0.0,0.0,86,0.00,,,0.00,0,Wunderground v.1.15,2013-01-11 10:12:00,
2013-01-11 05:17:00,37.7,33.9,30.19,East,82,0.0,0.0,86,0.00,,,0.00,0,Wunderground v.1.15,2013-01-11 10:17:00,
2013-01-11 05:22:00,37.6,33.8,30.19,East,82,0.0,0.0,86,0.00,,,0.00,0,Wunderground v.1.15,2013-01-11 10:22:00,
2013-01-11 05:28:00,37.5,33.7,30.20,East,82,0.0,0.0,86,0.00,,,0.00,0,Wunderground v.1.15,2013-01-11 10:28:00,
2013-01-11 05:34:00,37.4,33.9,30.19,East,82,0.0,0.0,87,0.00,,,0.00,0,Wunderground v.1.15,2013-01-11 10:34:00,
2013-01-11 05:40:00,37.3,33.8,30.19,East,82,0.0,0.0,87,0.00,,,0.00,0,Wunderground v.1.15,2013-01-11 10:40:00,
2013-01-11 05:45:00,37.3,33.8,30.19,East,82,0.0,0.0,87,0.00,,,0.00,0,Wunderground v.1.15,2013-01-11 10:45:00,
2013-01-11 05:51:00,37.4,33.9,30.19,East,82,0.0,0.0,87,0.00,,,0.00,0,Wunderground v.1.15,2013-01-11 10:51:00,
2013-01-11 05:56:00,37.4,35.3,30.19,East,82,0.0,0.0,92,0.00,,,0.00,0,Wunderground v.1.15,2013-01-11 10:56:00,
2013-01-11 06:02:00,37.6,34.1,30.19,ESE,117,0.0,1.0,87,0.00,,,0.00,0,Wunderground v.1.15,2013-01-11 11:02:00,
2013-01-11 06:07:00,37.8,34.3,30.19,ESE,117,0.0,1.0,87,0.00,,,0.00,0,Wunderground v.1.15,2013-01-11 11:07:00,
2013-01-11 06:13:00,37.9,34.4,30.19,ESE,117,0.0,1.0,87,0.00,,,0.00,0,Wunderground v.1.15,2013-01-11 11:13:00,
2013-01-11 06:19:00,38.1,34.3,30.19,ESE,117,0.0,1.0,86,0.00,,,0.00,0,Wunderground v.1.15,2013-01-11 11:19:00,
2013-01-11 06:25:00,38.3,34.5,30.19,ESE,117,0.0,0.0,86,0.00,,,0.00,0,Wunderground v.1.15,2013-01-11 11:25:00,
2013-01-11 06:30:00,38.6,34.8,30.19,ESE,117,0.0,0.0,86,0.00,,,0.00,0,Wunderground v.1.15,2013-01-11 11:30:00,
2013-01-11 06:36:00,39.0,35.2,30.19,ESE,119,0.0,1.0,86,0.00,,,0.00,0,Wunderground v.1.15,2013-01-11 11:36:00,
2013-01-11 06:41:00,39.3,35.8,30.19,ESE,119,0.0,0.0,87,0.00,,,0.00,0,Wunderground v.1.15,2013-01-11 11:41:00,
2013-01-11 06:47:00,39.5,35.7,30.19,ESE,119,0.0,0.0,86,0.00,,,0.00,0,Wunderground v.1.15,2013-01-11 11:47:00,
2013-01-11 06:52:00,39.7,35.9,30.19,South,180,0.0,1.0,86,0.00,,,0.00,0,Wunderground v.1.15,2013-01-11 11:52:00,
2013-01-11 06:58:00,40.2,36.3,30.19,South,180,0.0,1.0,86,0.00,,,0.00,0,Wunderground v.1.15,2013-01-11 11:58:00,
2013-01-11 07:03:00,40.7,36.8,30.19,South,180,0.0,0.0,86,0.00,,,0.01,0,Wunderground v.1.15,2013-01-11 12:03:00,
2013-01-11 07:08:00,41.2,37.3,30.19,South,180,0.0,0.0,86,0.07,,,0.02,0,Wunderground v.1.15,2013-01-11 12:08:00,
2013-01-11 07:14:00,41.5,37.9,30.19,SSE,165,0.0,0.0,87,0.07,,,0.02,0,Wunderground v.1.15,2013-01-11 12:14:00,
2013-01-11 07:19:00,41.6,38.0,30.18,SSE,163,0.0,0.0,87,0.05,,,0.02,0,Wunderground v.1.15,2013-01-11 12:19:00,
2013-01-11 07:25:00,41.5,37.9,30.18,South,188,0.0,1.0,87,0.00,,,0.02,0,Wunderground v.1.15,2013-01-11 12:25:00,
2013-01-11 07:30:00,41.8,38.5,30.18,ESE,123,0.0,0.0,88,0.00,,,0.02,0,Wunderground v.1.15,2013-01-11 12:30:00,
2013-01-11 07:36:00,42.1,38.8,30.18,South,181,0.0,3.0,88,0.00,,,0.02,0,Wunderground v.1.15,2013-01-11 12:36:00,
2013-01-11 07:41:00,42.7,39.4,30.17,SSW,200,1.0,2.0,88,0.00,,,0.02,0,Wunderground v.1.15,2013-01-11 12:41:00,
2013-01-11 07:47:00,43.4,40.1,30.16,SE,127,1.0,8.0,88,0.00,,,0.02,0,Wunderground v.1.15,2013-01-11 12:47:00,
2013-01-11 07:52:00,44.0,40.7,30.16,SE,139,2.0,8.0,88,0.00,,,0.02,0,Wunderground v.1.15,2013-01-11 12:52:00,
2013-01-11 07:58:00,44.5,40.9,30.16,SSE,162,2.0,8.0,87,0.00,,,0.02,7,Wunderground v.1.15,2013-01-11 12:58:00,
2013-01-11 08:04:00,44.7,41.1,30.15,SE,137,1.0,2.0,87,0.00,,,0.02,9,Wunderground v.1.15,2013-01-11 13:04:00,
2013-01-11 08:09:00,45.0,41.1,30.15,SSE,148,0.0,2.0,86,0.00,,,0.02,16,Wunderground v.1.15,2013-01-11 13:09:00,
2013-01-11 08:15:00,45.1,41.2,30.15,SSE,147,0.0,0.0,86,0.00,,,0.02,14,Wunderground v.1.15,2013-01-11 13:15:00,
2013-01-11 08:20:00,45.1,41.2,30.14,SSE,147,0.0,0.0,86,0.00,,,0.02,12,Wunderground v.1.15,2013-01-11 13:20:00,
2013-01-11 08:26:00,45.1,41.2,30.13,SSE,147,0.0,0.0,86,0.00,,,0.02,18,Wunderground v.1.15,2013-01-11 13:26:00,
2013-01-11 08:31:00,45.1,41.2,30.14,SE,140,0.0,0.0,86,0.00,,,0.02,23,Wunderground v.1.15,2013-01-11 13:31:00,
2013-01-11 08:37:00,44.9,41.0,30.14,SE,140,0.0,0.0,86,0.00,,,0.02,32,Wunderground v.1.15,2013-01-11 13:37:00,
2013-01-11 08:43:00,44.6,40.7,30.13,SE,140,0.0,0.0,86,0.00,,,0.02,21,Wunderground v.1.15,2013-01-11 13:43:00,
2013-01-11 08:48:00,44.3,40.7,30.13,SE,140,0.0,1.0,87,0.00,,,0.02,18,Wunderground v.1.15,2013-01-11 13:48:00,
2013-01-11 08:54:00,44.2,40.9,30.12,SE,126,0.0,0.0,88,0.00,,,0.02,26,Wunderground v.1.15,2013-01-11 13:54:00,
2013-01-11 08:59:00,44.3,41.0,30.13,SE,142,0.0,1.0,88,0.00,,,0.02,32,Wunderground v.1.15,2013-01-11 13:59:00,
2013-01-11 09:04:00,44.7,41.4,30.12,SE,146,1.0,6.0,88,0.00,,,0.02,44,Wunderground v.1.15,2013-01-11 14:04:00,
2013-01-11 09:10:00,45.3,41.7,30.12,SSE,156,1.0,4.0,87,0.00,,,0.02,40,Wunderground v.1.15,2013-01-11 14:10:00,
2013-01-11 09:16:00,45.8,41.9,30.12,SSE,154,1.0,4.0,86,0.00,,,0.02,33,Wunderground v.1.15,2013-01-11 14:16:00,
2013-01-11 09:21:00,46.3,42.0,30.12,SE,140,1.0,1.0,85,0.00,,,0.02,53,Wunderground v.1.15,2013-01-11 14:21:00,
2013-01-11 09:27:00,46.6,42.0,30.12,SSE,163,0.0,3.0,84,0.00,,,0.02,74,Wunderground v.1.15,2013-01-11 14:27:00,
2013-01-11 09:32:00,46.9,42.3,30.11,South,173,0.0,3.0,84,0.00,,,0.02,76,Wunderground v.1.15,2013-01-11 14:32:00,
2013-01-11 09:38:00,47.3,42.7,30.11,SE,141,0.0,3.0,84,0.00,,,0.02,76,Wunderground v.1.15,2013-01-11 14:38:00,
2013-01-11 09:43:00,47.7,42.8,30.10,ESE,123,1.0,3.0,83,0.00,,,0.02,77,Wunderground v.1.15,2013-01-11 14:43:00,
2013-01-11 09:49:00,48.2,43.0,30.10,SSE,154,1.0,3.0,82,0.00,,,0.02,74,Wunderground v.1.15,2013-01-11 14:49:00,
2013-01-11 09:55:00,48.6,43.4,30.09,SSE,155,1.0,1.0,82,0.00,,,0.02,77,Wunderground v.1.15,2013-01-11 14:55:00,
2013-01-11 10:00:00,49.0,43.4,30.09,ESE,117,1.0,1.0,81,0.00,,,0.02,91,Wunderground v.1.15,2013-01-11 15:00:00,
2013-01-11 10:06:00,49.4,43.8,30.09,South,169,1.0,2.0,81,0.00,,,0.02,84,Wunderground v.1.15,2013-01-11 15:06:00,
2013-01-11 10:11:00,49.6,44.0,30.09,SE,128,1.0,1.0,81,0.00,,,0.02,58,Wunderground v.1.15,2013-01-11 15:11:00,
2013-01-11 10:17:00,49.9,44.0,30.08,SSE,165,2.0,8.0,80,0.00,,,0.02,69,Wunderground v.1.15,2013-01-11 15:17:00,
2013-01-11 10:22:00,50.4,44.1,30.07,SSE,154,3.0,3.0,79,0.00,,,0.02,105,Wunderground v.1.15,2013-01-11 15:22:00,
2013-01-11 10:28:00,50.8,44.2,30.07,South,172,2.0,3.0,78,0.00,,,0.02,81,Wunderground v.1.15,2013-01-11 15:28:00,
2013-01-11 10:33:00,51.1,44.5,30.07,SSE,159,2.0,5.0,78,0.00,,,0.02,79,Wunderground v.1.15,2013-01-11 15:33:00,
2013-01-11 10:39:00,51.3,44.3,30.07,SSE,161,2.0,5.0,77,0.00,,,0.02,109,Wunderground v.1.15,2013-01-11 15:39:00,
2013-01-11 10:44:00,51.5,44.5,30.06,South,173,3.0,5.0,77,0.00,,,0.02,118,Wunderground v.1.15,2013-01-11 15:44:00,
2013-01-11 10:50:00,51.8,44.5,30.06,SE,146,3.0,4.0,76,0.00,,,0.02,30,Wunderground v.1.15,2013-01-11 15:50:00,
2013-01-11 10:55:00,51.8,44.8,30.07,South,178,2.0,4.0,77,0.00,,,0.02,28,Wunderground v.1.15,2013-01-11 15:55:00,
2013-01-11 11:00:00,51.7,45.1,30.06,SE,146,2.0,2.0,78,0.00,,,0.02,26,Wunderground v.1.15,2013-01-11 16:00:00,
2013-01-11 11:06:00,51.3,44.7,30.06,ESE,111,1.0,4.0,78,0.00,,,0.02,46,Wunderground v.1.15,2013-01-11 16:06:00,
2013-01-11 11:11:00,51.1,44.8,30.06,SSE,161,1.0,2.0,79,0.00,,,0.02,58,Wunderground v.1.15,2013-01-11 16:11:00,
2013-01-11 11:16:00,51.0,45.0,30.04,SSE,155,1.0,4.0,80,0.00,,,0.03,53,Wunderground v.1.15,2013-01-11 16:16:00,
2013-01-11 11:22:00,50.8,44.9,30.04,SE,144,2.0,2.0,80,0.00,,,0.03,47,Wunderground v.1.15,2013-01-11 16:22:00,
2013-01-11 11:28:00,50.7,45.1,30.02,ESE,104,2.0,5.0,81,0.00,,,0.03,28,Wunderground v.1.15,2013-01-11 16:28:00,
2013-01-11 11:34:00,50.6,45.3,30.02,SE,127,2.0,2.0,82,0.00,,,0.03,30,Wunderground v.1.15,2013-01-11 16:34:00,
2013-01-11 11:40:00,50.4,45.1,30.01,SE,130,0.0,4.0,82,0.00,,,0.03,90,Wunderground v.1.15,2013-01-11 16:40:00,
2013-01-11 11:46:00,50.4,45.4,30.01,ESE,121,2.0,6.0,83,0.00,,,0.03,149,Wunderground v.1.15,2013-01-11 16:46:00,
2013-01-11 11:51:00,50.6,45.6,30.01,SE,136,3.0,3.0,83,0.00,,,0.03,125,Wunderground v.1.15,2013-01-11 16:51:00,
2013-01-11 11:57:00,50.7,45.7,30.01,SSE,167,1.0,4.0,83,0.00,,,0.03,42,Wunderground v.1.15,2013-01-11 16:57:00,
2013-01-11 12:02:00,50.8,46.1,30.00,SSE,159,1.0,2.0,84,0.00,,,0.03,46,Wunderground v.1.15,2013-01-11 17:02:00,
2013-01-11 12:07:00,50.8,46.1,29.99,South,172,2.0,5.0,84,0.00,,,0.03,111,Wunderground v.1.15,2013-01-11 17:07:00,
2013-01-11 12:13:00,50.8,46.5,29.99,SE,146,2.0,4.0,85,0.00,,,0.03,62,Wunderground v.1.15,2013-01-11 17:13:00,
2013-01-11 12:19:00,50.7,46.7,29.99,South,188,1.0,4.0,86,0.00,,,0.04,26,Wunderground v.1.15,2013-01-11 17:19:00,
2013-01-11 12:25:00,50.5,46.8,30.01,South,188,0.0,1.0,87,0.15,,,0.06,21,Wunderground v.1.15,2013-01-11 17:25:00,
2013-01-11 12:31:00,50.2,47.1,30.00,South,188,0.0,0.0,89,0.26,,,0.08,12,Wunderground v.1.15,2013-01-11 17:31:00,
2013-01-11 12:37:00,49.8,47.0,30.01,South,189,0.0,0.0,90,0.38,,,0.10,26,Wunderground v.1.15,2013-01-11 17:37:00,
2013-01-11 12:42:00,49.4,46.6,30.02,South,189,0.0,0.0,90,0.17,,,0.11,44,Wunderground v.1.15,2013-01-11 17:42:00,
2013-01-11 12:48:00,48.9,46.4,30.01,South,189,0.0,0.0,91,0.13,,,0.12,32,Wunderground v.1.15,2013-01-11 17:48:00,
2013-01-11 12:53:00,48.5,46.0,30.01,South,189,0.0,0.0,91,0.12,,,0.13,37,Wunderground v.1.15,2013-01-11 17:53:00,
2013-01-11 12:59:00,48.2,47.1,30.01,South,189,0.0,0.0,96,0.07,,,0.14,53,Wunderground v.1.15,2013-01-11 17:59:00,
2013-01-11 13:04:00,48.0,45.8,30.01,South,189,0.0,0.0,92,0.07,,,0.14,65,Wunderground v.1.15,2013-01-11 18:04:00,
2013-01-11 13:10:00,47.7,45.5,30.01,South,189,0.0,0.0,92,0.05,,,0.14,44,Wunderground v.1.15,2013-01-11 18:10:00,
2013-01-11 13:15:00,47.6,45.7,30.01,South,189,0.0,0.0,93,0.00,,,0.14,90,Wunderground v.1.15,2013-01-11 18:15:00,
2013-01-11 13:21:00,47.9,46.5,30.01,South,189,0.0,0.0,95,0.00,,,0.14,70,Wunderground v.1.15,2013-01-11 18:21:00,
2013-01-11 13:26:00,48.2,46.8,30.01,South,189,0.0,0.0,95,0.00,,,0.14,33,Wunderground v.1.15,2013-01-11 18:26:00,
2013-01-11 13:32:00,48.2,46.6,30.00,South,189,0.0,1.0,94,0.00,,,0.14,53,Wunderground v.1.15,2013-01-11 18:32:00,
2013-01-11 13:37:00,48.0,46.4,30.00,South,189,0.0,1.0,94,0.00,,,0.14,19,Wunderground v.1.15,2013-01-11 18:37:00,
2013-01-11 13:42:00,47.9,46.3,30.01,South,189,0.0,0.0,94,0.00,,,0.14,19,Wunderground v.1.15,2013-01-11 18:42:00,
2013-01-11 13:48:00,47.8,46.2,30.00,South,189,0.0,0.0,94,0.00,,,0.14,28,Wunderground v.1.15,2013-01-11 18:48:00,
2013-01-11 13:53:00,47.7,46.1,30.00,South,189,0.0,0.0,94,0.00,,,0.14,39,Wunderground v.1.15,2013-01-11 18:53:00,
2013-01-11 13:58:00,47.6,46.0,30.00,South,189,0.0,0.0,94,0.00,,,0.14,67,Wunderground v.1.15,2013-01-11 18:58:00,
2013-01-11 14:03:00,47.4,45.8,30.00,South,189,0.0,0.0,94,0.00,,,0.15,21,Wunderground v.1.15,2013-01-11 19:03:00,
2013-01-11 14:09:00,47.5,46.1,30.01,South,189,0.0,0.0,95,0.00,,,0.15,33,Wunderground v.1.15,2013-01-11 19:09:00,
2013-01-11 14:15:00,47.3,45.7,30.01,South,189,0.0,0.0,94,0.00,,,0.15,32,Wunderground v.1.15,2013-01-11 19:15:00,
2013-01-11 14:20:00,47.1,45.5,30.01,South,189,0.0,0.0,94,0.00,,,0.15,21,Wunderground v.1.15,2013-01-11 19:20:00,
2013-01-11 14:26:00,47.1,45.7,30.00,South,189,0.0,0.0,95,0.00,,,0.15,56,Wunderground v.1.15,2013-01-11 19:26:00,
2013-01-11 14:31:00,47.2,45.8,30.00,South,189,0.0,0.0,95,0.00,,,0.15,40,Wunderground v.1.15,2013-01-11 19:31:00,
2013-01-11 14:37:00,47.2,45.8,30.01,South,189,0.0,0.0,95,0.00,,,0.15,25,Wunderground v.1.15,2013-01-11 19:37:00,
2013-01-11 14:42:00,47.3,46.2,30.01,South,189,0.0,0.0,96,0.00,,,0.16,95,Wunderground v.1.15,2013-01-11 19:42:00,
2013-01-11 14:47:00,47.4,46.3,30.01,South,189,0.0,0.0,96,0.25,,,0.18,46,Wunderground v.1.15,2013-01-11 19:47:00,
2013-01-11 14:53:00,47.4,46.3,30.00,South,189,0.0,0.0,96,0.08,,,0.18,56,Wunderground v.1.15,2013-01-11 19:53:00,
2013-01-11 14:58:00,47.4,46.3,30.00,South,189,0.0,0.0,96,0.05,,,0.18,16,Wunderground v.1.15,2013-01-11 19:58:00,
2013-01-11 15:03:00,47.3,45.9,30.00,South,189,0.0,0.0,95,0.00,,,0.18,63,Wunderground v.1.15,2013-01-11 20:03:00,
2013-01-11 15:08:00,47.3,46.2,29.99,SE,133,0.0,4.0,96,0.00,,,0.18,72,Wunderground v.1.15,2013-01-11 20:08:00,
2013-01-11 15:13:00,48.3,47.5,29.99,SSE,159,1.0,2.0,97,0.00,,,0.19,35,Wunderground v.1.15,2013-01-11 20:13:00,
2013-01-11 15:18:00,49.2,48.4,29.99,SSE,164,1.0,2.0,97,0.00,,,0.19,26,Wunderground v.1.15,2013-01-11 20:18:00,
2013-01-11 15:24:00,49.7,48.9,29.99,SE,127,1.0,5.0,97,0.00,,,0.19,18,Wunderground v.1.15,2013-01-11 20:24:00,
2013-01-11 15:29:00,50.0,49.2,29.99,SSE,163,1.0,5.0,97,0.00,,,0.19,44,Wunderground v.1.15,2013-01-11 20:29:00,
2013-01-11 15:35:00,50.2,49.4,29.99,SSE,163,0.0,1.0,97,0.00,,,0.19,39,Wunderground v.1.15,2013-01-11 20:35:00,
2013-01-11 15:40:00,50.3,49.5,29.99,SSE,163,0.0,0.0,97,0.00,,,0.19,40,Wunderground v.1.15,2013-01-11 20:40:00,
2013-01-11 15:45:00,50.4,49.6,29.99,South,188,0.0,1.0,97,0.00,,,0.19,65,Wunderground v.1.15,2013-01-11 20:45:00,
2013-01-11 15:51:00,50.6,49.8,29.99,SE,145,0.0,0.0,97,0.00,,,0.19,44,Wunderground v.1.15,2013-01-11 20:51:00,
2013-01-11 15:56:00,50.7,49.9,29.99,SE,145,0.0,0.0,97,0.00,,,0.19,76,Wunderground v.1.15,2013-01-11 20:56:00,
2013-01-11 16:01:00,50.7,49.9,29.99,SE,145,0.0,0.0,97,0.00,,,0.19,54,Wunderground v.1.15,2013-01-11 21:01:00,
2013-01-11 16:07:00,50.9,50.1,29.99,SE,145,0.0,0.0,97,0.00,,,0.19,28,Wunderground v.1.15,2013-01-11 21:07:00,
2013-01-11 16:12:00,51.1,50.3,29.99,SE,145,0.0,0.0,97,0.00,,,0.19,40,Wunderground v.1.15,2013-01-11 21:12:00,
2013-01-11 16:18:00,50.6,49.5,30.00,SE,145,0.0,0.0,96,0.00,,,0.19,28,Wunderground v.1.15,2013-01-11 21:18:00,
2013-01-11 16:23:00,50.1,49.0,30.00,SE,145,0.0,0.0,96,0.00,,,0.19,21,Wunderground v.1.15,2013-01-11 21:23:00,
2013-01-11 16:29:00,49.8,48.7,30.00,SE,145,0.0,1.0,96,0.00,,,0.19,11,Wunderground v.1.15,2013-01-11 21:29:00,
2013-01-11 16:34:00,49.3,47.9,30.00,SE,145,0.0,0.0,95,0.00,,,0.19,11,Wunderground v.1.15,2013-01-11 21:34:00,
2013-01-11 16:39:00,49.2,48.1,30.01,NW,306,1.0,8.0,96,0.00,,,0.19,0,Wunderground v.1.15,2013-01-11 21:39:00,
2013-01-11 16:45:00,49.4,48.3,30.00,WSW,252,2.0,2.0,96,0.00,,,0.19,5,Wunderground v.1.15,2013-01-11 21:45:00,
2013-01-11 16:50:00,49.2,48.1,30.00,WSW,252,0.0,0.0,96,0.00,,,0.19,5,Wunderground v.1.15,2013-01-11 21:50:00,
2013-01-11 16:56:00,49.0,47.9,30.00,WSW,252,0.0,1.0,96,0.00,,,0.19,16,Wunderground v.1.15,2013-01-11 21:56:00,
2013-01-11 17:01:00,48.8,47.7,29.99,WSW,252,0.0,0.0,96,0.00,,,0.19,14,Wunderground v.1.15,2013-01-11 22:01:00,
2013-01-11 17:06:00,48.8,47.7,30.00,WSW,252,0.0,0.0,96,0.00,,,0.19,5,Wunderground v.1.15,2013-01-11 22:06:00,
2013-01-11 17:12:00,48.7,47.6,30.00,WSW,252,0.0,0.0,96,0.00,,,0.19,0,Wunderground v.1.15,2013-01-11 22:12:00,
2013-01-11 17:17:00,48.6,47.5,30.00,WSW,252,0.0,0.0,96,0.00,,,0.19,0,Wunderground v.1.15,2013-01-11 22:17:00,
2013-01-11 17:22:00,48.5,47.4,30.00,WSW,252,0.0,0.0,96,0.00,,,0.19,0,Wunderground v.1.15,2013-01-11 22:22:00,
2013-01-11 17:28:00,48.2,47.1,30.01,WSW,252,0.0,0.0,96,0.00,,,0.19,0,Wunderground v.1.15,2013-01-11 22:28:00,
2013-01-11 17:33:00,47.8,46.7,30.01,WSW,252,0.0,0.0,96,0.00,,,0.19,0,Wunderground v.1.15,2013-01-11 22:33:00,
2013-01-11 17:38:00,47.5,46.4,30.01,WSW,252,0.0,0.0,96,0.00,,,0.19,0,Wunderground v.1.15,2013-01-11 22:38:00,
2013-01-11 17:43:00,47.0,45.6,30.01,WSW,252,0.0,0.0,95,0.00,,,0.19,0,Wunderground v.1.15,2013-01-11 22:43:00,
2013-01-11 17:48:00,46.7,45.6,30.00,WSW,252,0.0,0.0,96,0.00,,,0.19,0,Wunderground v.1.15,2013-01-11 22:48:00,
2013-01-11 17:53:00,46.3,44.9,30.01,WSW,252,0.0,0.0,95,0.00,,,0.19,0,Wunderground v.1.15,2013-01-11 22:53:00,
2013-01-11 17:59:00,45.9,44.5,30.01,WSW,252,0.0,0.0,95,0.00,,,0.19,0,Wunderground v.1.15,2013-01-11 22:59:00,
2013-01-11 18:04:00,45.5,44.2,30.01,WSW,252,0.0,0.0,95,0.00,,,0.19,0,Wunderground v.1.15,2013-01-11 23:04:00,
2013-01-11 18:10:00,45.1,43.8,30.01,WSW,252,0.0,0.0,95,0.00,,,0.19,0,Wunderground v.1.15,2013-01-11 23:10:00,
2013-01-11 18:16:00,44.7,43.4,30.02,WSW,252,0.0,0.0,95,0.00,,,0.19,0,Wunderground v.1.15,2013-01-11 23:16:00,
2013-01-11 18:21:00,44.2,42.9,30.02,WSW,252,0.0,0.0,95,0.00,,,0.19,0,Wunderground v.1.15,2013-01-11 23:21:00,
2013-01-11 18:27:00,43.7,42.4,30.02,WSW,252,0.0,0.0,95,0.00,,,0.19,0,Wunderground v.1.15,2013-01-11 23:27:00,
2013-01-11 18:32:00,43.4,42.1,30.02,WSW,252,0.0,0.0,95,0.00,,,0.19,0,Wunderground v.1.15,2013-01-11 23:32:00,
2013-01-11 18:37:00,43.2,41.9,30.03,WSW,252,0.0,0.0,95,0.00,,,0.19,0,Wunderground v.1.15,2013-01-11 23:37:00,
2013-01-11 18:42:00,42.9,41.6,30.02,WSW,252,0.0,0.0,95,0.00,,,0.19,0,Wunderground v.1.15,2013-01-11 23:42:00,
2013-01-11 18:48:00,42.6,41.3,30.02,WSW,252,0.0,0.0,95,0.00,,,0.19,0,Wunderground v.1.15,2013-01-11 23:48:00,
2013-01-11 18:54:00,42.4,41.1,30.02,WSW,252,0.0,0.0,95,0.00,,,0.19,0,Wunderground v.1.15,2013-01-11 23:54:00,
2013-01-11 19:00:00,42.3,41.0,30.03,WSW,252,0.0,0.0,95,0.00,,,0.19,0,Wunderground v.1.15,2013-01-12 00:00:00,
2013-01-11 19:05:00,42.1,40.8,30.02,WSW,252,0.0,0.0,95,0.00,,,0.19,0,Wunderground v.1.15,2013-01-12 00:05:00,
2013-01-11 19:11:00,42.1,41.0,30.02,WSW,252,0.0,0.0,96,0.00,,,0.19,0,Wunderground v.1.15,2013-01-12 00:11:00,
2013-01-11 19:16:00,42.1,41.0,30.02,WSW,252,0.0,0.0,96,0.00,,,0.19,0,Wunderground v.1.15,2013-01-12 00:16:00,
2013-01-11 19:22:00,42.0,40.9,30.02,WSW,252,0.0,0.0,96,0.00,,,0.19,0,Wunderground v.1.15,2013-01-12 00:22:00,
2013-01-11 19:27:00,41.8,40.7,30.02,WSW,252,0.0,0.0,96,0.00,,,0.19,0,Wunderground v.1.15,2013-01-12 00:27:00,
2013-01-11 19:33:00,41.7,40.6,30.03,WSW,252,0.0,0.0,96,0.00,,,0.19,0,Wunderground v.1.15,2013-01-12 00:33:00,
2013-01-11 19:38:00,41.6,40.5,30.03,WSW,252,0.0,0.0,96,0.00,,,0.19,0,Wunderground v.1.15,2013-01-12 00:38:00,
2013-01-11 19:43:00,41.4,40.3,30.03,WSW,252,0.0,0.0,96,0.00,,,0.19,0,Wunderground v.1.15,2013-01-12 00:43:00,
2013-01-11 19:49:00,41.3,40.2,30.03,WSW,252,0.0,0.0,96,0.00,,,0.19,0,Wunderground v.1.15,2013-01-12 00:49:00,
2013-01-11 19:55:00,41.1,40.0,30.03,WSW,252,0.0,0.0,96,0.00,,,0.19,0,Wunderground v.1.15,2013-01-12 00:55:00,
2013-01-11 20:00:00,41.0,39.9,30.03,WSW,252,0.0,0.0,96,0.00,,,0.19,0,Wunderground v.1.15,2013-01-12 01:00:00,
2013-01-11 20:05:00,40.8,39.7,30.03,WSW,252,0.0,0.0,96,0.00,,,0.19,0,Wunderground v.1.15,2013-01-12 01:05:00,
2013-01-11 20:11:00,40.7,39.6,30.03,WSW,252,0.0,0.0,96,0.00,,,0.19,0,Wunderground v.1.15,2013-01-12 01:11:00,
2013-01-11 20:17:00,40.5,39.4,30.03,WSW,252,0.0,0.0,96,0.00,,,0.19,0,Wunderground v.1.15,2013-01-12 01:17:00,
2013-01-11 20:22:00,40.4,39.4,30.02,WSW,252,0.0,0.0,96,0.00,,,0.19,0,Wunderground v.1.15,2013-01-12 01:22:00,
2013-01-11 20:27:00,40.4,39.4,30.03,WSW,252,0.0,0.0,96,0.00,,,0.19,0,Wunderground v.1.15,2013-01-12 01:27:00,
2013-01-11 20:33:00,40.3,39.3,30.03,WSW,252,0.0,0.0,96,0.00,,,0.19,0,Wunderground v.1.15,2013-01-12 01:33:00,
2013-01-11 20:39:00,40.2,39.2,30.03,WSW,252,0.0,0.0,96,0.00,,,0.19,0,Wunderground v.1.15,2013-01-12 01:39:00,
2013-01-11 20:45:00,40.0,39.0,30.03,WSW,252,0.0,0.0,96,0.00,,,0.19,0,Wunderground v.1.15,2013-01-12 01:45:00,
2013-01-11 20:50:00,39.9,38.9,30.03,WSW,252,0.0,0.0,96,0.00,,,0.19,0,Wunderground v.1.15,2013-01-12 01:50:00,
2013-01-11 20:56:00,39.7,38.7,30.03,WSW,252,0.0,0.0,96,0.00,,,0.19,0,Wunderground v.1.15,2013-01-12 01:56:00,
2013-01-11 21:01:00,39.6,38.6,30.03,WSW,252,0.0,0.0,96,0.00,,,0.19,0,Wunderground v.1.15,2013-01-12 02:01:00,
2013-01-11 21:07:00,39.5,38.5,30.03,WSW,252,0.0,0.0,96,0.00,,,0.19,0,Wunderground v.1.15,2013-01-12 02:07:00,
2013-01-11 21:12:00,39.5,38.5,30.04,WSW,252,0.0,0.0,96,0.00,,,0.19,0,Wunderground v.1.15,2013-01-12 02:12:00,
2013-01-11 21:18:00,39.3,38.3,30.04,WSW,252,0.0,0.0,96,0.00,,,0.19,0,Wunderground v.1.15,2013-01-12 02:18:00,
2013-01-11 21:24:00,39.2,38.2,30.04,WSW,252,0.0,0.0,96,0.00,,,0.19,0,Wunderground v.1.15,2013-01-12 02:24:00,
2013-01-11 21:29:00,39.1,38.1,30.04,WSW,252,0.0,0.0,96,0.00,,,0.19,0,Wunderground v.1.15,2013-01-12 02:29:00,
2013-01-11 21:35:00,39.0,38.0,30.04,WSW,252,0.0,0.0,96,0.00,,,0.19,0,Wunderground v.1.15,2013-01-12 02:35:00,
2013-01-11 21:41:00,38.8,37.8,30.04,WSW,252,0.0,0.0,96,0.00,,,0.19,0,Wunderground v.1.15,2013-01-12 02:41:00,
2013-01-11 21:47:00,38.7,37.7,30.03,WSW,252,0.0,0.0,96,0.00,,,0.19,0,Wunderground v.1.15,2013-01-12 02:47:00,
2013-01-11 21:52:00,38.6,37.6,30.03,WSW,252,0.0,0.0,96,0.00,,,0.19,0,Wunderground v.1.15,2013-01-12 02:52:00,
2013-01-11 21:58:00,38.5,37.5,30.03,WSW,252,0.0,0.0,96,0.00,,,0.19,0,Wunderground v.1.15,2013-01-12 02:58:00,
2013-01-11 22:04:00,38.6,37.6,30.05,WSW,252,0.0,0.0,96,0.00,,,0.19,0,Wunderground v.1.15,2013-01-12 03:04:00,
2013-01-11 22:09:00,38.5,37.5,30.04,WSW,252,0.0,0.0,96,0.00,,,0.19,0,Wunderground v.1.15,2013-01-12 03:09:00,
2013-01-11 22:15:00,38.4,37.4,30.04,WSW,252,0.0,0.0,96,0.00,,,0.19,0,Wunderground v.1.15,2013-01-12 03:15:00,
2013-01-11 22:20:00,38.3,37.3,30.04,WSW,252,0.0,0.0,96,0.00,,,0.19,0,Wunderground v.1.15,2013-01-12 03:20:00,
2013-01-11 22:26:00,38.3,37.3,30.05,WSW,252,0.0,0.0,96,0.00,,,0.19,0,Wunderground v.1.15,2013-01-12 03:26:00,
2013-01-11 22:32:00,38.2,37.2,30.05,WSW,252,0.0,0.0,96,0.00,,,0.19,0,Wunderground v.1.15,2013-01-12 03:32:00,
2013-01-11 22:37:00,38.2,37.2,30.03,WSW,252,0.0,0.0,96,0.00,,,0.19,0,Wunderground v.1.15,2013-01-12 03:37:00,
2013-01-11 22:43:00,38.2,37.2,30.04,WSW,252,0.0,0.0,96,0.00,,,0.19,0,Wunderground v.1.15,2013-01-12 03:43:00,
2013-01-11 22:48:00,38.2,37.2,30.04,WSW,252,0.0,0.0,96,0.00,,,0.19,0,Wunderground v.1.15,2013-01-12 03:48:00,
2013-01-11 22:53:00,38.2,37.2,30.04,WSW,252,0.0,0.0,96,0.00,,,0.19,0,Wunderground v.1.15,2013-01-12 03:53:00,
2013-01-11 22:59:00,38.2,37.2,30.04,WSW,252,0.0,0.0,96,0.00,,,0.19,0,Wunderground v.1.15,2013-01-12 03:59:00,
2013-01-11 23:12:00,38.1,37.1,30.03,WSW,252,0.0,0.0,96,0.00,,,0.19,0,Wunderground v.1.15,2013-01-12 04:12:00,
2013-01-11 23:18:00,37.9,36.9,30.03,WSW,252,0.0,0.0,96,0.00,,,0.19,0,Wunderground v.1.15,2013-01-12 04:18:00,
2013-01-11 23:24:00,37.8,36.8,30.03,WSW,252,0.0,0.0,96,0.00,,,0.19,0,Wunderground v.1.15,2013-01-12 04:24:00,
2013-01-11 23:30:00,37.8,36.8,30.04,WSW,252,0.0,0.0,96,0.00,,,0.19,0,Wunderground v.1.15,2013-01-12 04:30:00,
2013-01-11 23:35:00,37.7,36.7,30.04,WSW,252,0.0,0.0,96,0.00,,,0.19,0,Wunderground v.1.15,2013-01-12 04:35:00,
2013-01-11 23:41:00,37.6,36.6,30.04,WSW,252,0.0,0.0,96,0.00,,,0.19,0,Wunderground v.1.15,2013-01-12 04:41:00,
2013-01-11 23:47:00,37.5,36.5,30.04,WSW,252,0.0,0.0,96,0.00,,,0.19,0,Wunderground v.1.15,2013-01-12 04:47:00,
2013-01-11 23:53:00,37.4,36.4,30.04,WSW,252,0.0,0.0,96,0.00,,,0.19,0,Wunderground v.1.15,2013-01-12 04:53:00,
2013-01-11 23:58:00,37.3,36.3,30.04,WSW,252,0.0,0.0,96,0.00,,,0.19,0,Wunderground v.1.15,2013-01-12 04:58:00,